Weather History for LDRI - April, 2014

Change the Weather History Date:

Friday, April 11, 2014

  Actual Average Record
Temperature  
Mean Temperature 60 °F -  
Max Temperature 66 °F - - ()
Min Temperature 53 °F - - ()
Degree Days  
Heating Degree Days 6    
Growing Degree Days 10 (Base 50)    
Moisture  
Dew Point 40 °F    
Average Humidity 46    
Maximum Humidity 54    
Minimum Humidity 40    
Precipitation  
Precipitation 0.00 in - - ()
Sea Level Pressure  
Sea Level Pressure 30.05 in    
Wind  
Wind Speed 5 mph ()    
Max Wind Speed 9 mph    
Max Gust Speed -    
Visibility 6.2 miles    
Events      
T = Trace of Precipitation, MM = Missing Value Source: Averaged Metar Reports

Daily Weather History Graph

Daily Weather History Graph

Search for Another Location

Airport or City:

Trip Planner

Search our weather history database for the weather conditions in past years. The results will help you decide how hot, cold, wet, or windy it might be!

Date:

Astronomy

Apr. 11, 2014 Rise Set
Actual Time 6:24 AM CEST 7:42 PM CEST
Civil Twilight 5:53 AM CEST 8:12 PM CEST
Nautical Twilight 5:17 AM CEST 8:49 PM CEST
Astronomical Twilight 4:38 AM CEST 9:28 PM CEST
Moon 3:56 PM CEST (4/11) 4:20 AM CEST (4/11)
Length of Visible Light 14h 18m
Length of Day
13h 17m
Waxing Gibbous, 85% of the Moon is Illuminated
Apr 11
Waxing Gibbous
Apr 15
Full
Apr 22
Last Quarter
Apr 29
New
May 7
First Quarter

Hourly Weather History & Observations

Time (CEST) Temp. Dew Point Humidity Pressure Visibility Wind Dir Wind Speed Gust Speed Precip Events Conditions
8:00 AM 53.6 °F 37.4 °F 54% 30.04 in 6.2 mi North 9.2 mph - N/A   Partly Cloudy
8:30 AM 53.6 °F 37.4 °F 54% 30.04 in 6.2 mi NNW 8.1 mph - N/A   Partly Cloudy
9:30 AM 57.2 °F 37.4 °F 48% 30.06 in 6.2 mi NNW 6.9 mph - N/A   Partly Cloudy
10:00 AM 59.0 °F 37.4 °F 45% 30.06 in 6.2 mi NNW 6.9 mph - N/A   Partly Cloudy
10:30 AM 59.0 °F 37.4 °F 45% 30.06 in 6.2 mi North 6.9 mph - N/A   Partly Cloudy
11:00 AM 60.8 °F 39.2 °F 45% 30.06 in 6.2 mi East 3.5 mph - N/A   Partly Cloudy
11:30 AM 60.8 °F 39.2 °F 45% 30.06 in 6.2 mi Variable 3.5 mph - N/A   Partly Cloudy
12:00 PM 60.8 °F 39.2 °F 45% 30.06 in 6.2 mi SE 6.9 mph - N/A   Partly Cloudy
12:30 PM 60.8 °F 39.2 °F 45% 30.06 in 6.2 mi SE 4.6 mph - N/A   Partly Cloudy
1:00 PM 64.4 °F 39.2 °F 40% 30.06 in 6.2 mi SW 4.6 mph - N/A   Partly Cloudy
1:30 PM 64.4 °F 39.2 °F 40% 30.06 in 6.2 mi SW 4.6 mph - N/A   Partly Cloudy
2:00 PM 66.2 °F 41.0 °F 40% 30.06 in 6.2 mi WSW 4.6 mph - N/A   Partly Cloudy
2:30 PM 66.2 °F 41.0 °F 40% 30.06 in 6.2 mi SW 4.6 mph - N/A   Partly Cloudy
3:00 PM 64.4 °F 41.0 °F 42% 30.04 in 6.2 mi WNW 6.9 mph - N/A   Scattered Clouds
3:30 PM 64.4 °F 41.0 °F 42% 30.04 in 6.2 mi WNW 6.9 mph - N/A   Scattered Clouds
4:00 PM 62.6 °F 41.0 °F 45% 30.04 in 6.2 mi West 4.6 mph - N/A   Scattered Clouds
4:30 PM 62.6 °F 41.0 °F 45% 30.04 in 6.2 mi NNW 4.6 mph - N/A   Scattered Clouds
5:00 PM 60.8 °F 41.0 °F 48% 30.04 in 6.2 mi West 4.6 mph - N/A   Scattered Clouds
5:30 PM 60.8 °F 41.0 °F 48% 30.04 in 6.2 mi West 4.6 mph - N/A   Scattered Clouds
6:00 PM 60.8 °F 41.0 °F 48% 30.04 in 6.2 mi Variable 2.3 mph - N/A   Scattered Clouds
6:30 PM 60.8 °F 41.0 °F 48% 30.04 in 6.2 mi Variable 1.2 mph - N/A   Scattered Clouds
7:00 PM 60.8 °F 41.0 °F 48% 30.04 in 6.2 mi Variable 1.2 mph - N/A   Scattered Clouds
7:30 PM 60.8 °F 41.0 °F 48% 30.04 in 6.2 mi Variable 1.2 mph - N/A   Scattered Clouds
8:00 PM 60.8 °F 41.0 °F 48% 30.01 in 6.2 mi Variable 2.3 mph - N/A   Scattered Clouds